Location: Moulis
(42.9609°N, 1.0909°E)
Time: 01:26:23
(UTC+00:00)

NOSS 2-3 (C) - Pass Details

Date: 11 December 2025
Orbit: 458 x 1718 km, 63.3° (Epoch: 17 January)

Event Time Altitude Azimuth Distance (km) Brightness Sun altitude
Rises 18:19:33 0° 233° (SW) 2,514 7.8 -20.9°
Reaches altitude 10° 18:21:45 10° 242° (WSW) 1,604 6.8 -21.3°
Maximum altitude 18:24:59 38° 312° (NW) 722 4.1 -21.8°
Enters shadow 18:25:40 34° 341° (NNW) 787 4.1 -22.0°
